This is the latest recevied weather packets stored in our database for station/object iw0uwf-4. If no packets are shown the sender has not sent any weather packets the latest 1 day(s).
| Time | Temp. | Humidity | Pressure | Rain* | Wind** | Luminosity | Snow |
|---|---|---|---|---|---|---|---|
| 1777999864 | 17.78° C | 71% | 1005.3 hPa | 0 mm | 0.89 m/s, 216° | 0 W/m² | - |
| 1777999804 | 17.78° C | 71% | 1005.3 hPa | 0 mm | 0.89 m/s, 214° | 0 W/m² | - |
| 1777999744 | 17.78° C | 71% | 1005.3 hPa | 0 mm | 0.89 m/s, 216° | 0 W/m² | - |
| 1777999684 | 17.78° C | 71% | 1005.5 hPa | 0 mm | 0.89 m/s, 213° | 0 W/m² | - |
| 1777999624 | 17.78° C | 71% | 1005.5 hPa | 0 mm | 0.89 m/s, 209° | 0 W/m² | - |
| 1777999564 | 17.78° C | 71% | 1005.4 hPa | 0 mm | 0.45 m/s, 202° | 0 W/m² | - |
| 1777999504 | 17.78° C | 71% | 1005.5 hPa | 0 mm | 0.45 m/s, 192° | 0 W/m² | - |
| 1777999444 | 17.78° C | 71% | 1005.4 hPa | 0 mm | 0.45 m/s, 182° | 0 W/m² | - |
| 1777999384 | 17.78° C | 71% | 1005.4 hPa | 0 mm | 0.45 m/s, 173° | 0 W/m² | - |
| 1777999323 | 17.78° C | 71% | 1005.3 hPa | 0 mm | 0.45 m/s, 155° | 0 W/m² | - |
| 1777999263 | 17.78° C | 71% | 1005.4 hPa | 0 mm | 0.45 m/s, 160° | 0 W/m² | - |
| 1777999203 | 17.78° C | 71% | 1005.4 hPa | 0 mm | 0.45 m/s, 168° | 0 W/m² | - |
| 1777999143 | 17.78° C | 71% | 1005.3 hPa | 0 mm | 0.45 m/s, 174° | 0 W/m² | - |
| 1777999083 | 17.78° C | 71% | 1005.4 hPa | 0 mm | 0.45 m/s, 182° | 0 W/m² | - |
| 1777999023 | 17.78° C | 71% | 1005.4 hPa | 0 mm | 0.89 m/s, 186° | 0 W/m² | - |
| 1777998963 | 17.78° C | 71% | 1005.4 hPa | 0 mm | 0.89 m/s, 197° | 0 W/m² | - |
| 1777998903 | 17.78° C | 71% | 1005.3 hPa | 0 mm | 0.89 m/s, 203° | 0 W/m² | - |
| 1777998843 | 17.78° C | 71% | 1005.3 hPa | 0 mm | 0.89 m/s, 205° | 0 W/m² | - |
| 1777998783 | 17.78° C | 71% | 1005.4 hPa | 0 mm | 0.89 m/s, 202° | 0 W/m² | - |
| 1777998724 | 17.78° C | 71% | 1005.2 hPa | 0 mm | 1.34 m/s, 207° | 0 W/m² | - |
| 1777998664 | 17.78° C | 70% | 1005.4 hPa | 0 mm | 1.34 m/s, 217° | 0 W/m² | - |
| 1777998604 | 17.78° C | 70% | 1005.4 hPa | 0 mm | 1.34 m/s, 220° | 0 W/m² | - |
| 1777998544 | 17.78° C | 70% | 1005.3 hPa | 0 mm | 1.34 m/s, 223° | 0 W/m² | - |
| 1777998484 | 17.78° C | 70% | 1005.3 hPa | 0 mm | 1.34 m/s, 226° | 0 W/m² | - |
| 1777998424 | 17.78° C | 70% | 1005.2 hPa | 0 mm | 1.34 m/s, 232° | 0 W/m² | - |
* Rain latest hour (hover to see other rain measurements)
** Current wind speed in m/s (hover to see current wind gust speed)